,,Stat5,,Stat1,,Stat2,,Stat3,,Stat4,,Wind1,,Wind1,
time,status,PA1M_AVG,status,PR1M_SUM,status,RH1M_AVG,status,SR1M_AVG,status,TA1M_AVG,status,W1dAve1m,status,W1sAve1m,
2000-11-16, 00:00:00,VALID,915.021,VALID,0,VALID,99.8286,VALID,-0.0509425,VALID,19.9132,VALID,222,VALID,0.949747,
2000-11-16, 00:01:00,VALID,915.021,VALID,0,VALID,99.8235,VALID,-0.0509425,VALID,19.9164,VALID,229,VALID,0.906661,
2000-11-16, 00:02:00,VALID,915.024,VALID,0,VALID,99.826,VALID,-0.0169808,VALID,19.9227,VALID,225,VALID,1.18328,
2000-11-16, 00:03:00,VALID,915.013,VALID,0,VALID,99.8273,VALID,-0.0339617,VALID,19.9353,VALID,243,VALID,1.1791,
2000-11-16, 00:04:00,VALID,915.005,VALID,0,VALID,99.826,VALID,-0.0169808,VALID,19.9386,VALID,235,VALID,0.605263,
2000-11-16, 00:05:00,VALID,914.996,VALID,0,VALID,99.8311,VALID,0,VALID,19.952,VALID,225,VALID,0.311472,
2000-11-16, 00:06:00,VALID,914.988,VALID,0,VALID,99.8337,VALID,-0.0169808,VALID,19.9582,VALID,243,VALID,0,
2000-11-16, 00:07:00,VALID,914.977,VALID,0,VALID,99.8337,VALID,-0.0169808,VALID,19.9545,VALID,245,VALID,0.257813,
2000-11-16, 00:08:00,VALID,914.964,VALID,0,VALID,99.8311,VALID,-0.0339617,VALID,19.9517,VALID,244,VALID,0.53766,
2000-11-16, 00:09:00,VALID,914.966,VALID,0,VALID,99.8311,VALID,0,VALID,19.9582,VALID,238,VALID,0.285846,
2000-11-16, 00:10:00,VALID,914.966,VALID,0,VALID,99.84,VALID,-0.0339617,VALID,19.9612,VALID,227,VALID,0.603207,
2000-11-16, 00:11:00,VALID,914.954,VALID,0,VALID,99.8489,VALID,-0.0169808,VALID,19.9448,VALID,214,VALID,0.358319,
2000-11-16, 00:12:00,VALID,914.955,VALID,0,VALID,99.8477,VALID,-0.0339617,VALID,19.9617,VALID,215,VALID,0.300564,
2000-11-16, 00:13:00,VALID,914.963,VALID,0,VALID,99.8349,VALID,-0.0339617,VALID,19.9512,VALID,202,VALID,0.335069,
2000-11-16, 00:14:00,VALID,914.952,VALID,0,VALID,99.8362,VALID,0,VALID,19.9552,VALID,196,VALID,0,
2000-11-16, 00:15:00,VALID,914.944,VALID,0,VALID,99.8553,VALID,-0.0339617,VALID,19.9515,VALID,189,VALID,0.135485,
2000-11-16, 00:16:00,VALID,914.928,VALID,0,VALID,99.8438,VALID,-0.0339617,VALID,19.9579,VALID,171,VALID,0.229601,
2000-11-16, 00:17:00,VALID,914.929,VALID,0,VALID,99.8502,VALID,-0.0339617,VALID,19.9448,VALID,177,VALID,0,
2000-11-16, 00:18:00,VALID,914.916,VALID,0,VALID,99.8642,VALID,0,VALID,19.9502,VALID,177,VALID,0,
2000-11-16, 00:19:00,VALID,914.906,VALID,0,VALID,99.8566,VALID,0,VALID,19.9532,VALID,177,VALID,0,
2000-11-16, 00:20:00,VALID,914.905,VALID,0,VALID,99.8553,VALID,0,VALID,19.9602,VALID,177,VALID,0,
2000-11-16, 00:21:00,VALID,914.903,VALID,0,VALID,99.8731,VALID,0.0169808,VALID,19.9736,VALID,177,VALID,0,
2000-11-16, 00:22:00,VALID,914.896,VALID,0,VALID,99.8655,VALID,0,VALID,19.9741,VALID,177,VALID,0,
2000-11-16, 00:23:00,VALID,914.899,VALID,0,VALID,99.8616,VALID,0,VALID,19.9567,VALID,175,VALID,0,
2000-11-16, 00:24:00,VALID,914.896,VALID,0,VALID,99.8553,VALID,0,VALID,19.9572,VALID,165,VALID,0,
2000-11-16, 00:25:00,VALID,914.902,VALID,0,VALID,99.8578,VALID,0.0339617,VALID,19.9438,VALID,165,VALID,0,
2000-11-16, 00:26:00,VALID,914.903,VALID,0,VALID,99.8515,VALID,0.0339617,VALID,19.9413,VALID,165,VALID,0,
2000-11-16, 00:27:00,VALID,914.901,VALID,0,VALID,99.8642,VALID,0.0509425,VALID,19.9313,VALID,165,VALID,0,
2000-11-16, 00:28:00,VALID,914.894,VALID,0,VALID,99.8604,VALID,0.0509425,VALID,19.9276,VALID,165,VALID,0,
2000-11-16, 00:29:00,VALID,914.892,VALID,0,VALID,99.8553,VALID,0,VALID,19.9313,VALID,165,VALID,0,
2000-11-16, 00:30:00,VALID,914.892,VALID,0,VALID,99.854,VALID,0,VALID,19.9179,VALID,158,VALID,0,
2000-11-16, 00:31:00,VALID,914.888,VALID,0,VALID,99.8553,VALID,0,VALID,19.902,VALID,109,VALID,0,
2000-11-16, 00:32:00,VALID,914.888,VALID,0,VALID,99.8527,VALID,0.0339617,VALID,19.8861,VALID,102,VALID,0,
2000-11-16, 00:33:00,VALID,914.896,VALID,0,VALID,99.8553,VALID,0.0339617,VALID,19.8754,VALID,96,VALID,0,
2000-11-16, 00:34:00,VALID,914.894,VALID,0,VALID,99.8604,VALID,0,VALID,19.8635,VALID,96,VALID,0,
2000-11-16, 00:35:00,VALID,914.891,VALID,0,VALID,99.8642,VALID,0,VALID,19.8439,VALID,96,VALID,0,
2000-11-16, 00:36:00,VALID,914.894,VALID,0,VALID,99.8553,VALID,0,VALID,19.8312,VALID,96,VALID,0,
2000-11-16, 00:37:00,VALID,914.888,VALID,0,VALID,99.8527,VALID,0,VALID,19.8245,VALID,96,VALID,0,
2000-11-16, 00:38:00,VALID,914.887,VALID,0,VALID,99.8642,VALID,0,VALID,19.8409,VALID,96,VALID,0,
2000-11-16, 00:39:00,VALID,914.895,VALID,0,VALID,99.8655,VALID,0,VALID,19.8242,VALID,96,VALID,0,
2000-11-16, 00:40:00,VALID,914.88,VALID,0,VALID,99.8693,VALID,0,VALID,19.8314,VALID,96,VALID,0,
2000-11-16, 00:41:00,VALID,914.859,VALID,0,VALID,99.8718,VALID,0.0509425,VALID,19.8344,VALID,96,VALID,0,
2000-11-16, 00:42:00,VALID,914.845,VALID,0,VALID,99.8655,VALID,0,VALID,19.818,VALID,96,VALID,0,
2000-11-16, 00:43:00,VALID,914.841,VALID,0,VALID,99.882,VALID,0.0169808,VALID,19.8215,VALID,96,VALID,0,
2000-11-16, 00:44:00,VALID,914.818,VALID,0,VALID,99.8718,VALID,0.0339617,VALID,19.8145,VALID,96,VALID,0,
2000-11-16, 00:45:00,VALID,914.8,VALID,0,VALID,99.8731,VALID,0,VALID,19.8245,VALID,96,VALID,0,
2000-11-16, 00:46:00,VALID,914.791,VALID,0,VALID,99.882,VALID,0,VALID,19.8116,VALID,96,VALID,0,
2000-11-16, 00:47:00,VALID,914.782,VALID,0,VALID,99.8909,VALID,0.0509425,VALID,19.818,VALID,96,VALID,0,
2000-11-16, 00:48:00,VALID,914.787,VALID,0,VALID,99.8795,VALID,0.0169808,VALID,19.8404,VALID,96,VALID,0,
2000-11-16, 00:49:00,VALID,914.769,VALID,0,VALID,99.8858,VALID,0.0339617,VALID,19.8439,VALID,96,VALID,0,
2000-11-16, 00:50:00,VALID,914.775,VALID,0,VALID,99.8858,VALID,0,VALID,19.87,VALID,95,VALID,0,
2000-11-16, 00:51:00,VALID,914.766,VALID,0,VALID,99.8922,VALID,0.0169808,VALID,19.86,VALID,94,VALID,0,
2000-11-16, 00:52:00,VALID,914.744,VALID,0,VALID,99.8845,VALID,0.0169808,VALID,19.8503,VALID,94,VALID,0,
2000-11-16, 00:53:00,VALID,914.736,VALID,0,VALID,99.8858,VALID,-0.0169808,VALID,19.8444,VALID,94,VALID,0,
2000-11-16, 00:54:00,VALID,914.731,VALID,0,VALID,99.8845,VALID,0,VALID,19.8252,VALID,94,VALID,0,
2000-11-16, 00:55:00,VALID,914.713,VALID,0,VALID,99.8909,VALID,0.0169808,VALID,19.8118,VALID,102,VALID,0,
2000-11-16, 00:56:00,VALID,914.7,VALID,0,VALID,99.8845,VALID,0,VALID,19.8051,VALID,113,VALID,0,
2000-11-16, 00:57:00,VALID,914.679,VALID,0,VALID,99.8896,VALID,0.0339617,VALID,19.7919,VALID,120,VALID,0,
2000-11-16, 00:58:00,VALID,914.67,VALID,0,VALID,99.8947,VALID,0.0169808,VALID,19.7989,VALID,128,VALID,0,
2000-11-16, 00:59:00,VALID,914.645,VALID,0,VALID,99.8884,VALID,0,VALID,19.7865,VALID,128,VALID,0,
2000-11-16, 01:00:00,VALID,914.646,VALID,0,VALID,99.8896,VALID,0,VALID,19.7733,VALID,126,VALID,0,
2000-11-16, 01:01:00,VALID,914.64,VALID,0,VALID,99.8934,VALID,0,VALID,19.7765,VALID,119,VALID,0,
2000-11-16, 01:02:00,VALID,914.656,VALID,0,VALID,99.9011,VALID,0.0169808,VALID,19.7765,VALID,113,VALID,0,
2000-11-16, 01:03:00,VALID,914.644,VALID,0,VALID,99.8845,VALID,0,VALID,19.7671,VALID,108,VALID,0,
2000-11-16, 01:04:00,VALID,914.644,VALID,0,VALID,99.8845,VALID,0,VALID,19.7507,VALID,108,VALID,0,
2000-11-16, 01:05:00,VALID,914.647,VALID,0,VALID,99.9049,VALID,0,VALID,19.7507,VALID,107,VALID,0,
2000-11-16, 01:06:00,VALID,914.642,VALID,0,VALID,99.896,VALID,-0.0169808,VALID,19.7343,VALID,107,VALID,0,
2000-11-16, 01:07:00,VALID,914.638,VALID,0,VALID,99.8947,VALID,0.0169808,VALID,19.7121,VALID,107,VALID,0,
2000-11-16, 01:08:00,VALID,914.625,VALID,0,VALID,99.8884,VALID,-0.0169808,VALID,19.6893,VALID,107,VALID,0,
2000-11-16, 01:09:00,VALID,914.602,VALID,0,VALID,99.91,VALID,-0.0169808,VALID,19.6828,VALID,107,VALID,0,
2000-11-16, 01:10:00,VALID,914.614,VALID,0,VALID,99.9049,VALID,-0.0169808,VALID,19.6898,VALID,104,VALID,0,
2000-11-16, 01:11:00,VALID,914.6,VALID,0,VALID,99.8998,VALID,0,VALID,19.6729,VALID,94,VALID,0,
2000-11-16, 01:12:00,VALID,914.593,VALID,0,VALID,99.9138,VALID,0,VALID,19.657,VALID,77,VALID,0,
2000-11-16, 01:13:00,VALID,914.59,VALID,0,VALID,99.91,VALID,0.0169808,VALID,19.6279,VALID,57,VALID,0,
2000-11-16, 01:14:00,VALID,914.593,VALID,0,VALID,99.9087,VALID,0,VALID,19.6344,VALID,55,VALID,0,
2000-11-16, 01:15:00,VALID,914.592,VALID,0,VALID,99.9176,VALID,-0.0169808,VALID,19.6438,VALID,77,VALID,0,
2000-11-16, 01:16:00,VALID,914.569,VALID,0,VALID,99.9112,VALID,0,VALID,19.6411,VALID,80,VALID,0,
2000-11-16, 01:17:00,VALID,914.55,VALID,0,VALID,99.9176,VALID,0,VALID,19.6244,VALID,80,VALID,0,
2000-11-16, 01:18:00,VALID,914.53,VALID,0,VALID,99.9176,VALID,-0.101885,VALID,19.6127,VALID,80,VALID,0,
2000-11-16, 01:19:00,VALID,914.506,VALID,0,VALID,99.9201,VALID,-0.0679233,VALID,19.616,VALID,80,VALID,0,
2000-11-16, 01:20:00,VALID,914.477,VALID,0,VALID,99.9176,VALID,-0.101885,VALID,19.6259,VALID,80,VALID,0,
2000-11-16, 01:21:00,VALID,914.452,VALID,0,VALID,99.9049,VALID,-0.0679233,VALID,19.6294,VALID,80,VALID,0,
2000-11-16, 01:22:00,VALID,914.459,VALID,0,VALID,99.9214,VALID,-0.0849042,VALID,19.6361,VALID,88,VALID,0,
2000-11-16, 01:23:00,VALID,914.444,VALID,0,VALID,99.9227,VALID,-0.0679233,VALID,19.6326,VALID,97,VALID,0,
2000-11-16, 01:24:00,VALID,914.445,VALID,0,VALID,99.9138,VALID,-0.0509425,VALID,19.6363,VALID,96,VALID,0,
2000-11-16, 01:25:00,VALID,914.443,VALID,0,VALID,99.9176,VALID,-0.101885,VALID,19.6097,VALID,84,VALID,0,
2000-11-16, 01:26:00,VALID,914.433,VALID,0,VALID,99.9316,VALID,-0.101885,VALID,19.6262,VALID,100,VALID,0,
2000-11-16, 01:27:00,VALID,914.442,VALID,0,VALID,99.9329,VALID,-0.0679233,VALID,19.6393,VALID,100,VALID,0,
2000-11-16, 01:28:00,VALID,914.428,VALID,0,VALID,99.924,VALID,-0.101885,VALID,19.646,VALID,100,VALID,0,
2000-11-16, 01:29:00,VALID,914.428,VALID,0,VALID,99.9316,VALID,-0.0679233,VALID,19.6555,VALID,78,VALID,0,
2000-11-16, 01:30:00,VALID,914.433,VALID,0,VALID,99.924,VALID,-0.0509425,VALID,19.6518,VALID,77,VALID,0,
2000-11-16, 01:31:00,VALID,914.419,VALID,0,VALID,99.9367,VALID,-0.0509425,VALID,19.6714,VALID,91,VALID,0,
2000-11-16, 01:32:00,VALID,914.429,VALID,0,VALID,99.9392,VALID,-0.0679233,VALID,19.6778,VALID,95,VALID,0,
2000-11-16, 01:33:00,VALID,914.434,VALID,0,VALID,99.9303,VALID,-0.0849042,VALID,19.6806,VALID,96,VALID,0,
2000-11-16, 01:34:00,VALID,914.422,VALID,0,VALID,99.9405,VALID,-0.0849042,VALID,19.6873,VALID,96,VALID,0,
2000-11-16, 01:35:00,VALID,914.424,VALID,0,VALID,99.9341,VALID,-0.0509425,VALID,19.6903,VALID,96,VALID,0,
2000-11-16, 01:36:00,VALID,914.407,VALID,0,VALID,99.9354,VALID,-0.0849042,VALID,19.698,VALID,96,VALID,0,
2000-11-16, 01:37:00,VALID,914.411,VALID,0,VALID,99.9303,VALID,-0.0509425,VALID,19.6778,VALID,96,VALID,0,
2000-11-16, 01:38:00,VALID,914.402,VALID,0,VALID,99.9354,VALID,-0.101885,VALID,19.6684,VALID,96,VALID,0,
2000-11-16, 01:39:00,VALID,914.393,VALID,0,VALID,99.9265,VALID,-0.0509425,VALID,19.6423,VALID,96,VALID,0,
2000-11-16, 01:40:00,VALID,914.387,VALID,0,VALID,99.9278,VALID,-0.0849042,VALID,19.6329,VALID,96,VALID,0,
2000-11-16, 01:41:00,VALID,914.382,VALID,0,VALID,99.9303,VALID,-0.0339617,VALID,19.6294,VALID,94,VALID,0,
2000-11-16, 01:42:00,VALID,914.373,VALID,0,VALID,99.9329,VALID,-0.0339617,VALID,19.6162,VALID,93,VALID,0,
2000-11-16, 01:43:00,VALID,914.357,VALID,0,VALID,99.9303,VALID,-0.0339617,VALID,19.6127,VALID,93,VALID,0,
2000-11-16, 01:44:00,VALID,914.359,VALID,0,VALID,99.9354,VALID,-0.0509425,VALID,19.6192,VALID,93,VALID,0,
2000-11-16, 01:45:00,VALID,914.352,VALID,0,VALID,99.9379,VALID,-0.0509425,VALID,19.6331,VALID,93,VALID,0,
2000-11-16, 01:46:00,VALID,914.358,VALID,0,VALID,99.9392,VALID,-0.0679233,VALID,19.6262,VALID,93,VALID,0,
2000-11-16, 01:47:00,VALID,914.366,VALID,0,VALID,99.9316,VALID,-0.0169808,VALID,19.603,VALID,93,VALID,0,
2000-11-16, 01:48:00,VALID,914.374,VALID,0,VALID,99.9405,VALID,-0.0849042,VALID,19.6097,VALID,93,VALID,0,
2000-11-16, 01:49:00,VALID,914.362,VALID,0,VALID,99.9418,VALID,-0.101885,VALID,19.5971,VALID,93,VALID,0,
2000-11-16, 01:50:00,VALID,914.366,VALID,0,VALID,99.9418,VALID,-0.0679233,VALID,19.5938,VALID,93,VALID,0,
2000-11-16, 01:51:00,VALID,914.374,VALID,0,VALID,99.9418,VALID,-0.0339617,VALID,19.6232,VALID,93,VALID,0,
2000-11-16, 01:52:00,VALID,914.39,VALID,0,VALID,99.9481,VALID,-0.0679233,VALID,19.5968,VALID,93,VALID,0,
2000-11-16, 01:53:00,VALID,914.386,VALID,0,VALID,99.9481,VALID,-0.0849042,VALID,19.5807,VALID,93,VALID,0,
2000-11-16, 01:54:00,VALID,914.379,VALID,0,VALID,99.943,VALID,-0.0509425,VALID,19.5717,VALID,93,VALID,0,
2000-11-16, 01:55:00,VALID,914.388,VALID,0,VALID,99.9456,VALID,-0.0509425,VALID,19.5715,VALID,93,VALID,0,
2000-11-16, 01:56:00,VALID,914.373,VALID,0,VALID,99.9392,VALID,-0.0509425,VALID,19.5551,VALID,93,VALID,0,
2000-11-16, 01:57:00,VALID,914.372,VALID,0,VALID,99.9545,VALID,-0.0679233,VALID,19.5685,VALID,93,VALID,0,
2000-11-16, 01:58:00,VALID,914.362,VALID,0,VALID,99.9494,VALID,-0.0679233,VALID,19.5779,VALID,93,VALID,0,
2000-11-16, 01:59:00,VALID,914.346,VALID,0,VALID,99.9583,VALID,-0.0509425,VALID,19.6065,VALID,93,VALID,0,
2000-11-16, 02:00:00,VALID,914.329,VALID,0,VALID,99.9685,VALID,-0.0849042,VALID,19.6386,VALID,108,VALID,0,
2000-11-16, 02:01:00,VALID,914.312,VALID,0,VALID,99.9634,VALID,-0.0339617,VALID,19.6714,VALID,117,VALID,0,
2000-11-16, 02:02:00,VALID,914.296,VALID,0,VALID,99.9557,VALID,-0.0849042,VALID,19.6781,VALID,117,VALID,0,
2000-11-16, 02:03:00,VALID,914.283,VALID,0,VALID,99.9697,VALID,-0.0679233,VALID,19.691,VALID,117,VALID,0,
2000-11-16, 02:04:00,VALID,914.274,VALID,0,VALID,99.9557,VALID,-0.0679233,VALID,19.6875,VALID,117,VALID,0,
2000-11-16, 02:05:00,VALID,914.252,VALID,0,VALID,99.9608,VALID,-0.0509425,VALID,19.6778,VALID,120,VALID,0,
2000-11-16, 02:06:00,VALID,914.228,VALID,0,VALID,99.9456,VALID,-0.0509425,VALID,19.6649,VALID,127,VALID,0,
2000-11-16, 02:07:00,VALID,914.235,VALID,0,VALID,99.9596,VALID,-0.0509425,VALID,19.6515,VALID,127,VALID,0,
2000-11-16, 02:08:00,VALID,914.234,VALID,0,VALID,99.9557,VALID,-0.0849042,VALID,19.6614,VALID,127,VALID,0,
2000-11-16, 02:09:00,VALID,914.217,VALID,0,VALID,99.9735,VALID,-0.0339617,VALID,19.6686,VALID,127,VALID,0,
2000-11-16, 02:10:00,VALID,914.214,VALID,0,VALID,99.9735,VALID,-0.0679233,VALID,19.6714,VALID,127,VALID,0,
2000-11-16, 02:11:00,VALID,914.217,VALID,0,VALID,99.9647,VALID,-0.0509425,VALID,19.6838,VALID,127,VALID,0,
2000-11-16, 02:12:00,VALID,914.201,VALID,0,VALID,99.971,VALID,-0.0339617,VALID,19.697,VALID,127,VALID,0,
2000-11-16, 02:13:00,VALID,914.208,VALID,0,VALID,99.9733,VALID,-0.101885,VALID,19.7134,VALID,127,VALID,0,
2000-11-16, 02:14:00,VALID,914.198,VALID,0,VALID,99.9685,VALID,-0.0849042,VALID,19.7335,VALID,127,VALID,0,
2000-11-16, 02:15:00,VALID,914.195,VALID,0,VALID,99.9708,VALID,-0.0679233,VALID,19.7201,VALID,127,VALID,0,
2000-11-16, 02:16:00,VALID,914.184,VALID,0,VALID,99.971,VALID,-0.0339617,VALID,19.6967,VALID,127,VALID,0,
2000-11-16, 02:17:00,VALID,914.179,VALID,0,VALID,99.9634,VALID,-0.0679233,VALID,19.6972,VALID,127,VALID,0,
2000-11-16, 02:18:00,VALID,914.168,VALID,0,VALID,99.9608,VALID,-0.0509425,VALID,19.697,VALID,127,VALID,0,
2000-11-16, 02:19:00,VALID,914.164,VALID,0,VALID,99.9685,VALID,-0.0339617,VALID,19.7034,VALID,125,VALID,0,
2000-11-16, 02:20:00,VALID,914.165,VALID,0,VALID,99.9659,VALID,-0.0169808,VALID,19.6967,VALID,124,VALID,0,
2000-11-16, 02:21:00,VALID,914.164,VALID,0,VALID,99.9557,VALID,-0.0509425,VALID,19.691,VALID,118,VALID,0,
2000-11-16, 02:22:00,VALID,914.152,VALID,0,VALID,99.9634,VALID,-0.0169808,VALID,19.6741,VALID,106,VALID,0,
2000-11-16, 02:23:00,VALID,914.136,VALID,0,VALID,99.9647,VALID,-0.0339617,VALID,19.6682,VALID,104,VALID,0,
2000-11-16, 02:24:00,VALID,914.133,VALID,0,VALID,99.9634,VALID,-0.0339617,VALID,19.6679,VALID,90,VALID,0,
2000-11-16, 02:25:00,VALID,914.117,VALID,0,VALID,99.9697,VALID,-0.0339617,VALID,19.658,VALID,90,VALID,0,
2000-11-16, 02:26:00,VALID,914.108,VALID,0,VALID,99.9685,VALID,-0.0169808,VALID,19.6741,VALID,102,VALID,0,
2000-11-16, 02:27:00,VALID,914.112,VALID,0,VALID,99.9647,VALID,-0.0169808,VALID,19.6677,VALID,98,VALID,0,
2000-11-16, 02:28:00,VALID,914.079,VALID,0,VALID,99.9697,VALID,-0.0509425,VALID,19.6612,VALID,91,VALID,0,
2000-11-16, 02:29:00,VALID,914.08,VALID,0,VALID,99.9799,VALID,0,VALID,19.6706,VALID,103,VALID,0,
2000-11-16, 02:30:00,VALID,914.065,VALID,0,VALID,99.9761,VALID,-0.0509425,VALID,19.6781,VALID,87,VALID,0,
2000-11-16, 02:31:00,VALID,914.059,VALID,0,VALID,99.971,VALID,-0.0339617,VALID,19.6453,VALID,86,VALID,0,
2000-11-16, 02:32:00,VALID,914.048,VALID,0,VALID,99.957,VALID,-0.0169808,VALID,19.6001,VALID,86,VALID,0,
2000-11-16, 02:33:00,VALID,914.036,VALID,0,VALID,99.9799,VALID,0.101885,VALID,19.6048,VALID,88,VALID,0,
2000-11-16, 02:34:00,VALID,914.022,VALID,0,VALID,99.9799,VALID,0.0339617,VALID,19.5824,VALID,89,VALID,0,
2000-11-16, 02:35:00,VALID,914.013,VALID,0,VALID,99.9723,VALID,0.0679233,VALID,19.563,VALID,85,VALID,0,
2000-11-16, 02:36:00,VALID,913.989,VALID,0,VALID,99.9786,VALID,0.0679233,VALID,19.5533,VALID,83,VALID,0,
2000-11-16, 02:37:00,VALID,913.975,VALID,0,VALID,99.9929,VALID,0.0509425,VALID,19.5697,VALID,83,VALID,0,
2000-11-16, 02:38:00,VALID,913.961,VALID,0,VALID,99.985,VALID,0.101885,VALID,19.5924,VALID,72,VALID,0,
2000-11-16, 02:39:00,VALID,913.94,VALID,0,VALID,99.9863,VALID,0.0849042,VALID,19.5563,VALID,51,VALID,0,
2000-11-16, 02:40:00,VALID,913.935,VALID,0,VALID,99.9858,VALID,0.0679233,VALID,19.566,VALID,59,VALID,0,
2000-11-16, 02:41:00,VALID,913.914,VALID,0,VALID,99.9873,VALID,0.101885,VALID,19.5625,VALID,59,VALID,0,
2000-11-16, 02:42:00,VALID,913.875,VALID,0,VALID,99.9908,VALID,0.0679233,VALID,19.576,VALID,80,VALID,0,
2000-11-16, 02:43:00,VALID,913.858,VALID,0,VALID,99.9919,VALID,0.101885,VALID,19.5988,VALID,89,VALID,0,
2000-11-16, 02:44:00,VALID,913.831,VALID,0,VALID,99.9919,VALID,0.101885,VALID,19.6083,VALID,94,VALID,0,
2000-11-16, 02:45:00,VALID,913.808,VALID,0,VALID,99.9924,VALID,0.101885,VALID,19.618,VALID,94,VALID,0,
2000-11-16, 02:46:00,VALID,913.796,VALID,0,VALID,99.9944,VALID,0.101885,VALID,19.6373,VALID,95,VALID,0,
2000-11-16, 02:47:00,VALID,913.769,VALID,0,VALID,100,VALID,0.0849042,VALID,19.6373,VALID,102,VALID,0,
2000-11-16, 02:48:00,VALID,913.753,VALID,0,VALID,99.999,VALID,-0.0679233,VALID,19.6684,VALID,111,VALID,0,
2000-11-16, 02:49:00,VALID,913.742,VALID,0,VALID,99.9934,VALID,-0.0679233,VALID,19.6749,VALID,110,VALID,0,
2000-11-16, 02:50:00,VALID,913.718,VALID,0,VALID,99.999,VALID,-0.0169808,VALID,19.6908,VALID,110,VALID,0,
2000-11-16, 02:51:00,VALID,913.708,VALID,0,VALID,99.999,VALID,-0.0509425,VALID,19.6908,VALID,103,VALID,0,
2000-11-16, 02:52:00,VALID,913.7,VALID,0,VALID,99.9967,VALID,-0.0509425,VALID,19.6773,VALID,101,VALID,0,
2000-11-16, 02:53:00,VALID,913.7,VALID,0,VALID,100,VALID,-0.0509425,VALID,19.6776,VALID,93,VALID,0,
2000-11-16, 02:54:00,VALID,913.684,VALID,0,VALID,99.999,VALID,-0.0339617,VALID,19.6582,VALID,91,VALID,0,
2000-11-16, 02:55:00,VALID,913.676,VALID,0,VALID,100,VALID,-0.0679233,VALID,19.6555,VALID,104,VALID,0,
2000-11-16, 02:56:00,VALID,913.653,VALID,0,VALID,99.999,VALID,-0.0509425,VALID,19.6744,VALID,107,VALID,0,
2000-11-16, 02:57:00,VALID,913.634,VALID,0,VALID,100,VALID,-0.0509425,VALID,19.6878,VALID,103,VALID,0,
2000-11-16, 02:58:00,VALID,913.614,VALID,0,VALID,100,VALID,-0.0849042,VALID,19.691,VALID,98,VALID,0,
2000-11-16, 02:59:00,VALID,913.598,VALID,0,VALID,100,VALID,-0.0339617,VALID,19.6972,VALID,96,VALID,0,
2000-11-16, 03:00:00,VALID,913.581,VALID,0,VALID,100,VALID,-0.0169808,VALID,19.6846,VALID,80,VALID,0,
2000-11-16, 03:01:00,VALID,913.57,VALID,0,VALID,100,VALID,-0.0849042,VALID,19.6746,VALID,93,VALID,0,
2000-11-16, 03:02:00,VALID,913.559,VALID,0,VALID,100,VALID,-0.0849042,VALID,19.6746,VALID,94,VALID,0,
2000-11-16, 03:03:00,VALID,913.553,VALID,0,VALID,100,VALID,-0.0339617,VALID,19.6843,VALID,101,VALID,0,
2000-11-16, 03:04:00,VALID,913.539,VALID,0,VALID,100,VALID,-0.0339617,VALID,19.6841,VALID,100,VALID,0,
2000-11-16, 03:05:00,VALID,913.527,VALID,0,VALID,100,VALID,-0.0509425,VALID,19.6905,VALID,98,VALID,0,
2000-11-16, 03:06:00,VALID,913.513,VALID,0,VALID,99.999,VALID,-0.0509425,VALID,19.6841,VALID,99,VALID,0,
2000-11-16, 03:07:00,VALID,913.505,VALID,0,VALID,99.999,VALID,-0.0679233,VALID,19.6808,VALID,100,VALID,0,
2000-11-16, 03:08:00,VALID,913.509,VALID,0,VALID,100,VALID,-0.0169808,VALID,19.6808,VALID,99,VALID,0,
2000-11-16, 03:09:00,VALID,913.496,VALID,0,VALID,99.999,VALID,-0.0339617,VALID,19.6773,VALID,99,VALID,0,
2000-11-16, 03:10:00,VALID,913.49,VALID,0,VALID,100,VALID,-0.0339617,VALID,19.6711,VALID,99,VALID,0,
2000-11-16, 03:11:00,VALID,913.478,VALID,0,VALID,100,VALID,-0.0509425,VALID,19.6773,VALID,99,VALID,0,
2000-11-16, 03:12:00,VALID,913.455,VALID,0,VALID,100,VALID,-0.0169808,VALID,19.6773,VALID,99,VALID,0,
2000-11-16, 03:13:00,VALID,913.444,VALID,0,VALID,100,VALID,-0.0509425,VALID,19.6873,VALID,99,VALID,0,
2000-11-16, 03:14:00,VALID,913.432,VALID,0,VALID,100,VALID,-0.0169808,VALID,19.6972,VALID,99,VALID,0,
2000-11-16, 03:15:00,VALID,913.422,VALID,0,VALID,100,VALID,-0.0339617,VALID,19.697,VALID,99,VALID,0,
2000-11-16, 03:16:00,VALID,913.414,VALID,0,VALID,100,VALID,-0.0339617,VALID,19.7226,VALID,99,VALID,0,
2000-11-16, 03:17:00,VALID,913.405,VALID,0.2,VALID,100,VALID,-0.0169808,VALID,19.7131,VALID,99,VALID,0,
2000-11-16, 03:18:00,VALID,913.396,VALID,0,VALID,100,VALID,-0.0679233,VALID,19.7325,VALID,99,VALID,0,
2000-11-16, 03:19:00,VALID,913.4,VALID,0,VALID,100,VALID,-0.0509425,VALID,19.7358,VALID,100,VALID,0,
2000-11-16, 03:20:00,VALID,913.385,VALID,0,VALID,100,VALID,-0.0509425,VALID,19.729,VALID,101,VALID,0,
2000-11-16, 03:21:00,VALID,913.373,VALID,0,VALID,100,VALID,-0.0509425,VALID,19.7002,VALID,95,VALID,0,
2000-11-16, 03:22:00,VALID,913.357,VALID,0,VALID,100,VALID,-0.0679233,VALID,19.6838,VALID,97,VALID,0,
2000-11-16, 03:23:00,VALID,913.332,VALID,0,VALID,100,VALID,-0.0509425,VALID,19.6744,VALID,97,VALID,0,
2000-11-16, 03:24:00,VALID,913.319,VALID,0,VALID,100,VALID,-0.0849042,VALID,19.6421,VALID,78,VALID,0,
2000-11-16, 03:25:00,VALID,913.314,VALID,0,VALID,100,VALID,-0.0849042,VALID,19.6262,VALID,100,VALID,0,
2000-11-16, 03:26:00,VALID,913.305,VALID,0,VALID,100,VALID,-0.0679233,VALID,19.5933,VALID,92,VALID,0,
2000-11-16, 03:27:00,VALID,913.309,VALID,0,VALID,100,VALID,-0.0679233,VALID,19.5745,VALID,92,VALID,0,
2000-11-16, 03:28:00,VALID,913.314,VALID,0,VALID,100,VALID,-0.0849042,VALID,19.5553,VALID,72,VALID,0,
2000-11-16, 03:29:00,VALID,913.31,VALID,0,VALID,100,VALID,-0.0339617,VALID,19.5257,VALID,89,VALID,0,
2000-11-16, 03:30:00,VALID,913.322,VALID,0,VALID,100,VALID,-0.0509425,VALID,19.5163,VALID,62,VALID,0,
2000-11-16, 03:31:00,VALID,913.314,VALID,0,VALID,100,VALID,-0.0679233,VALID,19.5126,VALID,71,VALID,0,
2000-11-16, 03:32:00,VALID,913.314,VALID,0,VALID,100,VALID,-0.0169808,VALID,19.5089,VALID,72,VALID,0,
2000-11-16, 03:33:00,VALID,913.313,VALID,0,VALID,100,VALID,-0.0339617,VALID,19.4962,VALID,78,VALID,0,
2000-11-16, 03:34:00,VALID,913.316,VALID,0,VALID,100,VALID,-0.0679233,VALID,19.5066,VALID,54,VALID,0,
2000-11-16, 03:35:00,VALID,913.317,VALID,0,VALID,100,VALID,-0.0679233,VALID,19.4897,VALID,83,VALID,0,
2000-11-16, 03:36:00,VALID,913.307,VALID,0,VALID,100,VALID,-0.0339617,VALID,19.4967,VALID,91,VALID,0,
2000-11-16, 03:37:00,VALID,913.323,VALID,0,VALID,100,VALID,-0.0509425,VALID,19.5064,VALID,68,VALID,0,
2000-11-16, 03:38:00,VALID,913.299,VALID,0,VALID,100,VALID,-0.0849042,VALID,19.5034,VALID,69,VALID,0,
2000-11-16, 03:39:00,VALID,913.306,VALID,0,VALID,100,VALID,-0.0339617,VALID,19.4803,VALID,58,VALID,0,
2000-11-16, 03:40:00,VALID,913.295,VALID,0,VALID,100,VALID,-0.0509425,VALID,19.5031,VALID,85,VALID,0,
2000-11-16, 03:41:00,VALID,913.29,VALID,0,VALID,100,VALID,-0.0679233,VALID,19.5257,VALID,98,VALID,0,
2000-11-16, 03:42:00,VALID,913.294,VALID,0,VALID,100,VALID,-0.0849042,VALID,19.5325,VALID,73,VALID,0,
2000-11-16, 03:43:00,VALID,913.288,VALID,0,VALID,100,VALID,-0.0339617,VALID,19.5255,VALID,52,VALID,0.665465,
2000-11-16, 03:44:00,VALID,913.293,VALID,0,VALID,100,VALID,-0.0679233,VALID,19.4932,VALID,78,VALID,1.73438,
2000-11-16, 03:45:00,VALID,913.265,VALID,0,VALID,100,VALID,-0.0169808,VALID,19.4674,VALID,77,VALID,1.32031,